Time,TemperatureF,DewpointF,PressureIn,WindDirection,WindDirectionDegrees,WindSpeedMPH,WindSpeedGustMPH,Humidity,HourlyPrecipIn,Conditions,Clouds,dailyrainin,SolarRadiationWatts/m^2,SoftwareType,DateUTC
2013-04-02 00:02:00,29.0,23.0,-100.00,South,170,0.0,2.0,78,0.00,,,0.00,0.000000,,2013-04-02 06:02:00,
2013-04-02 00:12:00,29.0,23.0,-100.00,South,170,0.0,2.0,78,0.00,,,0.00,0.000000,,2013-04-02 06:12:00,
2013-04-02 00:22:00,29.0,23.0,-100.00,South,170,0.0,2.0,78,0.00,,,0.00,0.000000,,2013-04-02 06:22:00,
2013-04-02 00:31:00,29.0,23.0,-100.00,South,170,0.0,2.0,78,0.00,,,0.00,0.000000,,2013-04-02 06:31:00,
2013-04-02 01:02:00,27.0,23.0,-100.00,WNW,292,0.0,3.0,84,0.00,,,0.00,0.000000,,2013-04-02 07:02:00,
2013-04-02 01:12:00,27.0,23.0,-100.00,WNW,292,0.0,3.0,84,0.00,,,0.00,0.000000,,2013-04-02 07:12:00,
2013-04-02 01:22:00,27.0,23.0,-100.00,WNW,292,0.0,3.0,84,0.00,,,0.00,0.000000,,2013-04-02 07:22:00,
2013-04-02 01:31:00,27.0,23.0,-100.00,WNW,292,0.0,3.0,84,0.00,,,0.00,0.000000,,2013-04-02 07:31:00,
2013-04-02 02:02:00,26.0,22.0,-100.00,South,191,0.0,2.0,86,0.00,,,0.00,0.000000,,2013-04-02 08:02:00,
2013-04-02 02:12:00,26.0,22.0,-100.00,South,191,0.0,2.0,86,0.00,,,0.00,0.000000,,2013-04-02 08:12:00,
2013-04-02 02:22:00,26.0,22.0,-100.00,South,191,0.0,2.0,86,0.00,,,0.00,0.000000,,2013-04-02 08:22:00,
2013-04-02 02:31:00,26.0,22.0,-100.00,South,191,0.0,2.0,86,0.00,,,0.00,0.000000,,2013-04-02 08:31:00,
2013-04-02 03:02:00,25.0,22.0,-100.00,SW,228,0.0,1.0,89,0.00,,,0.00,0.000000,,2013-04-02 09:02:00,
2013-04-02 03:12:00,25.0,22.0,-100.00,SW,228,0.0,1.0,89,0.00,,,0.00,0.000000,,2013-04-02 09:12:00,
2013-04-02 03:22:00,25.0,22.0,-100.00,SW,228,0.0,1.0,89,0.00,,,0.00,0.000000,,2013-04-02 09:22:00,
2013-04-02 03:32:00,25.0,22.0,-100.00,SW,228,0.0,1.0,89,0.00,,,0.00,0.000000,,2013-04-02 09:32:00,
2013-04-02 04:03:00,23.0,21.0,-100.00,South,180,0.0,2.0,90,0.00,,,0.00,0.000000,,2013-04-02 10:03:00,
2013-04-02 04:13:00,23.0,21.0,-100.00,South,180,0.0,2.0,90,0.00,,,0.00,0.000000,,2013-04-02 10:13:00,
2013-04-02 04:23:00,23.0,21.0,-100.00,South,180,0.0,2.0,90,0.00,,,0.00,0.000000,,2013-04-02 10:23:00,
2013-04-02 04:32:00,23.0,21.0,-100.00,South,180,0.0,2.0,90,0.00,,,0.00,0.000000,,2013-04-02 10:32:00,
2013-04-02 05:02:00,21.0,19.0,-100.00,SSW,192,0.0,2.0,91,0.00,,,0.00,0.000000,,2013-04-02 11:02:00,
2013-04-02 05:12:00,21.0,19.0,-100.00,SSW,192,0.0,2.0,91,0.00,,,0.00,0.000000,,2013-04-02 11:12:00,
2013-04-02 05:22:00,21.0,19.0,-100.00,SSW,192,0.0,2.0,91,0.00,,,0.00,0.000000,,2013-04-02 11:22:00,
2013-04-02 05:32:00,21.0,19.0,-100.00,SSW,192,0.0,2.0,91,0.00,,,0.00,0.000000,,2013-04-02 11:32:00,
2013-04-02 06:02:00,20.0,18.0,-100.00,SSW,192,1.0,2.0,92,0.00,,,0.00,0.000000,,2013-04-02 12:02:00,
2013-04-02 06:11:00,20.0,18.0,-100.00,SSW,192,1.0,2.0,92,0.00,,,0.00,0.000000,,2013-04-02 12:11:00,
2013-04-02 06:22:00,20.0,18.0,-100.00,SSW,192,1.0,2.0,92,0.00,,,0.00,0.000000,,2013-04-02 12:22:00,
2013-04-02 06:32:00,20.0,18.0,-100.00,SSW,192,1.0,2.0,92,0.00,,,0.00,0.000000,,2013-04-02 12:32:00,
2013-04-02 07:01:00,18.0,16.0,-100.00,South,182,0.0,2.0,90,0.00,,,0.00,0.000000,,2013-04-02 13:01:00,
2013-04-02 07:12:00,18.0,16.0,-100.00,South,182,0.0,2.0,90,0.00,,,0.00,0.000000,,2013-04-02 13:12:00,
2013-04-02 07:22:00,18.0,16.0,-100.00,South,182,0.0,2.0,90,0.00,,,0.00,0.000000,,2013-04-02 13:22:00,
2013-04-02 07:32:00,18.0,16.0,-100.00,South,182,0.0,2.0,90,0.00,,,0.00,0.000000,,2013-04-02 13:32:00,
2013-04-02 08:02:00,18.0,16.0,-100.00,SW,217,0.0,1.0,91,0.00,,,0.00,4.000000,,2013-04-02 14:02:00,
2013-04-02 08:12:00,18.0,16.0,-100.00,SW,217,0.0,1.0,91,0.00,,,0.00,4.000000,,2013-04-02 14:12:00,
2013-04-02 08:22:00,18.0,16.0,-100.00,SW,217,0.0,1.0,91,0.00,,,0.00,4.000000,,2013-04-02 14:22:00,
2013-04-02 08:32:00,18.0,16.0,-100.00,SW,217,0.0,1.0,91,0.00,,,0.00,4.000000,,2013-04-02 14:32:00,
2013-04-02 09:02:00,23.0,20.0,-100.00,SW,224,0.0,2.0,89,0.00,,,0.00,36.000000,,2013-04-02 15:02:00,
2013-04-02 09:11:00,23.0,20.0,-100.00,SW,224,0.0,2.0,89,0.00,,,0.00,36.000000,,2013-04-02 15:11:00,
2013-04-02 09:22:00,23.0,20.0,-100.00,SW,224,0.0,2.0,89,0.00,,,0.00,36.000000,,2013-04-02 15:22:00,
2013-04-02 09:33:00,23.0,20.0,-100.00,SW,224,0.0,2.0,89,0.00,,,0.00,36.000000,,2013-04-02 15:33:00,
2013-04-02 10:03:00,36.0,24.0,-100.00,WNW,298,1.0,3.0,61,-99.99,,,0.00,321.000000,,2013-04-02 16:03:00,
2013-04-02 10:13:00,36.0,24.0,-100.00,WNW,298,1.0,3.0,61,-99.99,,,0.00,321.000000,,2013-04-02 16:13:00,
2013-04-02 10:24:00,36.0,24.0,-100.00,WNW,298,1.0,3.0,61,-99.99,,,0.00,321.000000,,2013-04-02 16:24:00,
2013-04-02 10:33:00,36.0,24.0,-100.00,WNW,298,1.0,3.0,61,-99.99,,,0.00,321.000000,,2013-04-02 16:33:00,
2013-04-02 11:04:00,39.0,24.0,-100.00,North,350,2.0,4.0,54,0.00,,,-99.99,165.000000,,2013-04-02 17:04:00,
2013-04-02 11:13:00,39.0,24.0,-100.00,North,350,2.0,4.0,54,0.00,,,-99.99,165.000000,,2013-04-02 17:13:00,
2013-04-02 11:24:00,39.0,24.0,-100.00,North,350,2.0,4.0,54,0.00,,,-99.99,165.000000,,2013-04-02 17:24:00,
2013-04-02 11:33:00,39.0,24.0,-100.00,North,350,2.0,4.0,54,0.00,,,-99.99,165.000000,,2013-04-02 17:33:00,
2013-04-02 12:03:00,50.0,24.0,-100.00,WNW,296,2.0,4.0,36,0.00,,,0.00,627.000000,,2013-04-02 18:03:00,
2013-04-02 12:12:00,50.0,24.0,-100.00,WNW,296,2.0,4.0,36,0.00,,,0.00,627.000000,,2013-04-02 18:12:00,
2013-04-02 12:22:00,50.0,24.0,-100.00,WNW,296,2.0,4.0,36,0.00,,,0.00,627.000000,,2013-04-02 18:22:00,
2013-04-02 12:33:00,50.0,24.0,-100.00,WNW,296,2.0,4.0,36,0.00,,,0.00,627.000000,,2013-04-02 18:33:00,
2013-04-02 13:03:00,52.0,20.0,-100.00,West,259,3.0,5.0,28,0.00,,,0.00,311.000000,,2013-04-02 19:03:00,
2013-04-02 13:12:00,52.0,20.0,-100.00,West,259,3.0,5.0,28,0.00,,,0.00,311.000000,,2013-04-02 19:12:00,
2013-04-02 13:22:00,52.0,20.0,-100.00,West,259,3.0,5.0,28,0.00,,,0.00,311.000000,,2013-04-02 19:22:00,
2013-04-02 13:32:00,52.0,20.0,-100.00,West,259,3.0,5.0,28,0.00,,,0.00,311.000000,,2013-04-02 19:32:00,
2013-04-02 14:03:00,59.0,17.0,-100.00,SW,229,4.0,6.0,19,0.00,,,0.00,934.000000,,2013-04-02 20:03:00,
2013-04-02 14:12:00,59.0,17.0,-100.00,SW,229,4.0,6.0,19,0.00,,,0.00,934.000000,,2013-04-02 20:12:00,
2013-04-02 14:22:00,59.0,17.0,-100.00,SW,229,4.0,6.0,19,0.00,,,0.00,934.000000,,2013-04-02 20:22:00,
2013-04-02 14:32:00,59.0,17.0,-100.00,SW,229,4.0,6.0,19,0.00,,,0.00,934.000000,,2013-04-02 20:32:00,
2013-04-02 15:03:00,62.0,17.0,-100.00,NE,56,3.0,8.0,17,0.00,,,0.00,932.000000,,2013-04-02 21:03:00,
2013-04-02 15:12:00,62.0,17.0,-100.00,NE,56,3.0,8.0,17,0.00,,,0.00,932.000000,,2013-04-02 21:12:00,
2013-04-02 15:22:00,62.0,17.0,-100.00,NE,56,3.0,8.0,17,0.00,,,0.00,932.000000,,2013-04-02 21:22:00,
2013-04-02 15:32:00,62.0,17.0,-100.00,NE,56,3.0,8.0,17,0.00,,,0.00,932.000000,,2013-04-02 21:32:00,
2013-04-02 16:03:00,62.0,15.0,-100.00,West,266,4.0,7.0,16,-99.99,,,0.00,866.000000,,2013-04-02 22:03:00,
2013-04-02 16:13:00,62.0,15.0,-100.00,West,266,4.0,7.0,16,-99.99,,,0.00,866.000000,,2013-04-02 22:13:00,
2013-04-02 16:23:00,62.0,15.0,-100.00,West,266,4.0,7.0,16,-99.99,,,0.00,866.000000,,2013-04-02 22:23:00,
2013-04-02 16:33:00,62.0,15.0,-100.00,West,266,4.0,7.0,16,-99.99,,,0.00,866.000000,,2013-04-02 22:33:00,
2013-04-02 17:02:00,60.0,20.0,-100.00,SW,233,3.0,11.0,21,0.00,,,0.00,539.000000,,2013-04-02 23:02:00,
2013-04-02 17:12:00,60.0,20.0,-100.00,SW,233,3.0,11.0,21,0.00,,,0.00,539.000000,,2013-04-02 23:12:00,
2013-04-02 17:23:00,60.0,20.0,-100.00,SW,233,3.0,11.0,21,0.00,,,0.00,539.000000,,2013-04-02 23:23:00,
2013-04-02 17:32:00,60.0,20.0,-100.00,SW,233,3.0,11.0,21,0.00,,,0.00,539.000000,,2013-04-02 23:32:00,
2013-04-02 18:03:00,58.0,21.0,-100.00,West,260,4.0,11.0,24,0.00,,,0.00,241.000000,,2013-04-03 00:03:00,
2013-04-02 18:12:00,58.0,21.0,-100.00,West,260,4.0,11.0,24,0.00,,,0.00,241.000000,,2013-04-03 00:12:00,
2013-04-02 18:23:00,58.0,21.0,-100.00,West,260,4.0,11.0,24,0.00,,,0.00,241.000000,,2013-04-03 00:23:00,
2013-04-02 18:32:00,58.0,21.0,-100.00,West,260,4.0,11.0,24,0.00,,,0.00,241.000000,,2013-04-03 00:32:00,
2013-04-02 18:55:00,52.0,23.0,-100.00,SW,234,4.0,10.0,32,0.00,,,0.00,165.000000,,2013-04-03 00:55:00,
2013-04-02 19:03:00,52.0,23.0,-100.00,SW,234,4.0,10.0,32,0.00,,,0.00,165.000000,,2013-04-03 01:03:00,
2013-04-02 19:12:00,52.0,23.0,-100.00,SW,234,4.0,10.0,32,0.00,,,0.00,165.000000,,2013-04-03 01:12:00,
2013-04-02 19:22:00,52.0,23.0,-100.00,SW,234,4.0,10.0,32,0.00,,,0.00,165.000000,,2013-04-03 01:22:00,
2013-04-02 19:33:00,52.0,23.0,-100.00,SW,234,4.0,10.0,32,0.00,,,0.00,165.000000,,2013-04-03 01:33:00,
2013-04-02 20:03:00,46.0,25.0,-100.00,SW,224,3.0,7.0,43,0.00,,,0.00,16.000000,,2013-04-03 02:03:00,
2013-04-02 20:13:00,46.0,25.0,-100.00,SW,224,3.0,7.0,43,0.00,,,0.00,16.000000,,2013-04-03 02:13:00,
2013-04-02 20:23:00,46.0,25.0,-100.00,SW,224,3.0,7.0,43,0.00,,,0.00,16.000000,,2013-04-03 02:23:00,
2013-04-02 20:33:00,46.0,25.0,-100.00,SW,224,3.0,7.0,43,0.00,,,0.00,16.000000,,2013-04-03 02:33:00,
2013-04-02 21:04:00,41.0,25.0,-100.00,SW,226,2.0,6.0,52,0.00,,,0.00,1.000000,,2013-04-03 03:04:00,
2013-04-02 21:13:00,41.0,25.0,-100.00,SW,226,2.0,6.0,52,0.00,,,0.00,1.000000,,2013-04-03 03:13:00,
2013-04-02 21:22:00,41.0,25.0,-100.00,SW,226,2.0,6.0,52,0.00,,,0.00,1.000000,,2013-04-03 03:22:00,
2013-04-02 21:34:00,41.0,25.0,-100.00,SW,226,2.0,6.0,52,0.00,,,0.00,1.000000,,2013-04-03 03:34:00,
2013-04-02 22:03:00,37.0,26.0,-100.00,SW,229,3.0,6.0,63,0.00,,,0.00,0.000000,,2013-04-03 04:03:00,
2013-04-02 22:12:00,37.0,26.0,-100.00,SW,229,3.0,6.0,63,0.00,,,0.00,0.000000,,2013-04-03 04:12:00,
2013-04-02 22:23:00,37.0,26.0,-100.00,SW,229,3.0,6.0,63,0.00,,,0.00,0.000000,,2013-04-03 04:23:00,
2013-04-02 22:32:00,37.0,26.0,-100.00,SW,229,3.0,6.0,63,0.00,,,0.00,0.000000,,2013-04-03 04:32:00,
2013-04-02 23:02:00,38.0,26.0,-100.00,SW,228,3.0,7.0,61,0.00,,,0.00,0.000000,,2013-04-03 05:02:00,
2013-04-02 23:12:00,38.0,26.0,-100.00,SW,228,3.0,7.0,61,0.00,,,0.00,0.000000,,2013-04-03 05:12:00,
2013-04-02 23:22:00,38.0,26.0,-100.00,SW,228,3.0,7.0,61,0.00,,,0.00,0.000000,,2013-04-03 05:22:00,
2013-04-02 23:32:00,38.0,26.0,-100.00,SW,228,3.0,7.0,61,0.00,,,0.00,0.000000,,2013-04-03 05:32:00,